Location: Caprino
(45.7500°N, 9.4833°E)
Time: 17:39:42
(UTC+00:00)

Daily predictions for brighter satellites

Satellite Brightness Start Highest point End
(mag) Time Altitude Azimuth Time Altitude Azimuth Time Altitude Azimuth
Cosmos 1269 Rocket 4.3 18:11:59 10° SSW 18:17:16 80° WNW 18:22:37 10° NNE
STARLINK-1144 3.6 18:18:46 10° WNW 18:22:56 82° NNE 18:27:05 10° ESE
ARGOS Delta rocket 4.1 18:21:18 10° SSE 18:26:27 65° ENE 18:31:51 10° N
Cosmos 2251 Rocket 4.0 18:22:56 10° S 18:27:51 38° ESE 18:32:48 10° NE
STARLINK-1103 3.6 18:23:45 10° WNW 18:27:54 88° NNE 18:32:03 10° ESE
Cosmos 292 Rocket 4.2 18:23:31 10° N 18:28:07 44° ENE 18:32:43 10° SE
Cosmos 1455 Rocket 3.7 18:26:39 10° SSW 18:30:56 60° W 18:35:17 10° N
Cosmos 1953 3.1 18:27:30 10° SSE 18:30:59 30° E 18:34:28 10° NNE
YAOGAN 1 4.1 18:27:18 10° SSW 18:31:21 39° W 18:35:27 10° NNW
STARLINK-1101 3.6 18:28:44 10° WNW 18:32:53 87° SW 18:37:02 10° SE
Cosmos 2315 Rocket 4.0 18:27:55 10° S 18:34:12 74° E 18:40:34 10° NNE
Resurs 01 Rocket 3.2 18:34:56 10° ESE 18:37:52 18° ENE 18:40:49 10° NNE
STARLINK-1102 3.7 18:33:44 10° WNW 18:37:53 81° SSW 18:41:55 11° SE
FREGAT/IRIS 2.6 18:35:23 10° SSE 18:38:00 45° ENE 18:40:37 10° N
Aureole 3 4.1 18:34:55 10° SSE 18:39:08 49° E 18:44:31 10° NNE
Cosmos 1626 Rocket 3.5 18:34:47 10° N 18:39:11 83° E 18:43:32 10° S
Cosmos 2369 Rocket 2.4 18:33:49 10° NNW 18:39:26 55° ENE 18:44:58 10° SE
NOSS 3-3 (A) 4.1 18:34:39 10° S 18:40:10 47° ESE 18:46:19 10° NE
NOSS 3-3 (C) 4.1 18:34:46 10° S 18:40:16 47° ESE 18:46:25 10° NE
Cosmos 1626 2.9 18:38:10 10° NNW 18:41:49 56° W 18:45:26 10° S
STARLINK-1111 3.7 18:38:42 10° WNW 18:42:51 75° SW 18:46:41 12° SE
Cosmos 1943 Rocket 2.1 18:39:57 10° NNW 18:45:31 78° ENE 18:51:06 10° SSE
SL-8 R/B 3.7 18:40:56 10° WNW 18:45:44 83° NNE 18:49:51 14° ESE
Cosmos 1437 3.9 18:43:22 10° NNE 18:45:53 23° ENE 18:47:33 15° ESE
ADEOS Rocket 4.1 18:40:25 10° N 18:46:48 52° WNW 18:52:33 10° SW
Cosmos 1709 Rocket 4.2 18:40:40 10° N 18:46:51 77° W 18:52:57 10° S
STARLINK-1073 3.8 18:43:42 10° WNW 18:47:49 70° SW 18:51:29 13° SE
CZ-2C R/B 4.4 18:44:35 10° NNE 18:48:55 35° E 18:53:10 10° SSE
Cosmos 1602 Rocket 3.5 18:44:29 10° N 18:48:58 82° E 18:53:22 10° S
Cosmos 1470 3.0 18:47:33 10° SSW 18:51:25 73° W 18:55:20 10° N
STARLINK-1121 3.9 18:48:40 10° WNW 18:52:46 64° SW 18:56:15 14° SE
Cosmos 2263 4.4 18:49:16 10° NNW 18:54:46 53° ENE 18:59:31 14° SE
IRIDIUM 114 4.4 18:50:03 10° N 18:55:13 58° E 19:00:21 10° SSE
Ariane Rocket 3.2 18:50:28 10° S 18:55:32 76° WSW 19:00:38 10° NNW
STARLINK-1106 4.0 18:53:39 10° WNW 18:57:44 59° SW 19:01:02 15° SE
Abrixas rocket 2.2 18:56:03 10° W 18:59:01 64° NNW 19:01:18 15° ENE
Aureole 2 Rocket 2.3 18:56:51 10° NNW 19:00:22 89° ENE 19:03:32 12° SSE
Cosmos 2074 Rocket 4.1 18:55:37 10° N 19:01:50 59° ENE 19:08:01 10° SSE
STARLINK-1112 4.1 18:58:39 10° WNW 19:02:42 54° SW 19:05:49 16° SE
Cosmos 1943 3.4 18:57:55 10° S 19:03:20 49° ESE 19:08:47 10° NE
ATLAS 2AS CENTAUR R/B 3.5 18:56:15 10° NNW 19:03:35 44° NE 19:08:47 17° ESE
IRIDIUM 103 4.3 18:59:12 10° N 19:04:25 70° E 19:09:37 10° S
ISS -3.5 19:01:58 10° WNW 19:05:18 61° SSW 19:07:16 22° SE
Cosmos 1825 Rocket 3.8 19:02:23 10° N 19:06:41 49° ENE 19:10:01 16° SSE
USA 234 3.6 19:01:12 10° ENE 19:07:18 41° SE 19:13:23 10° SSW
STARLINK-1128 4.2 19:03:40 10° WNW 19:07:41 50° SW 19:10:37 17° SSE
SL-08 RB Rocket 3.6 19:03:21 10° SSE 19:07:51 73° ENE 19:12:27 10° N
SPOT 3 Rocket 3.6 19:06:51 10° SSE 19:11:59 66° ENE 19:17:10 10° N
STARLINK-1113 4.4 19:08:39 10° WNW 19:12:38 46° SW 19:15:23 18° SSE
SJ-6B 3.1 19:14:19 10° S 19:18:24 71° WSW 19:22:33 10° NNW
Cosmos 1758 Rocket 3.4 19:14:07 10° N 19:18:30 78° E 19:22:13 14° SSE
IRIDIUM 106 4.4 19:17:27 10° N 19:22:42 82° W 19:27:54 10° S
MOS 1 Rocket 3.8 19:18:23 10° NNE 19:23:35 51° E 19:28:51 10° S
SL-16 R/B 4.1 19:19:54 10° WSW 19:24:54 31° NW 19:29:56 10° N
Cosmos 1953 Rocket 3.7 19:21:18 10° N 19:25:41 53° ENE 19:27:53 27° SE
CZ-2C R/B 3.7 19:23:13 10° S 19:28:03 50° W 19:32:43 10° NNW
Cosmos 1818 3.6 19:23:12 10° SSW 19:28:31 58° ESE 19:33:53 10° NE
Cosmos 1606 Rocket 3.5 19:24:26 10° S 19:28:48 67° E 19:33:14 10° NNE
Terra 4.0 19:28:57 10° ENE 19:29:10 10° NE 19:29:22 10° NE
Cosmos 921 Rocket 4.2 19:29:02 10° N 19:32:27 24° ENE 19:32:50 23° ENE
BREEZE M DEB (TANK) 3.9 19:21:51 10° SW 19:32:35 54° SSE 19:34:30 30° E
Cosmos 614 Rocket 4.2 19:27:38 10° S 19:32:36 46° ESE 19:37:34 10° NNE
Cosmos 407 Rocket 3.9 19:30:02 16° SSE 19:33:40 39° ESE 19:38:25 10° NE
Cosmos 2228 2.9 19:30:37 10° S 19:34:52 73° E 19:39:12 10° NNE
SL-24 R/B 3.9 19:31:00 10° NNE 19:35:21 85° WNW 19:39:12 10° SSW
CZ-2C R/B 2.5 19:30:28 10° NNE 19:35:36 60° E 19:40:43 10° S
Cosmos 1656 Rocket 3.6 19:31:38 10° NNW 19:37:20 74° ENE 19:40:14 30° SE
Cosmos 2327 Rocket 4.5 19:32:57 10° N 19:39:17 78° E 19:44:16 18° SSE
ARGOS 4.2 19:35:57 10° S 19:41:05 45° W 19:46:16 10° NNW
MetOp-A 4.3 19:38:31 14° S 19:43:08 75° WSW 19:48:32 10° NNW
SL-4 R/B 2.5 19:41:33 10° SW 19:43:45 33° SSW 19:43:45 33° SSW
BREEZE-M DEB (TANK) 3.1 19:39:52 10° WNW 19:45:28 78° NNE 19:45:58 60° E
COSMOS 2455 3.7 19:40:35 10° NNW 19:46:08 37° NE 19:48:18 28° E
Cosmos 2341 Rocket 4.4 19:40:10 10° N 19:46:18 46° ENE 19:48:37 33° ESE
USA 186 4.5 19:43:49 10° SW 19:46:23 20° W 19:48:54 10° NW
Cosmos 1603 4.1 19:41:21 10° SW 19:46:56 64° WNW 19:52:32 10° NNE
Cosmos 1726 3.2 19:43:44 10° SSW 19:47:20 46° WNW 19:50:58 10° N
Cosmos 1340 Rocket 3.0 19:47:46 49° E 19:47:46 49° E 19:51:36 10° NNE
ERS-1 Rocket 4.2 19:47:59 24° ENE 19:48:24 24° ENE 19:52:24 10° N
H-2A R/B 3.8 19:45:27 10° SSW 19:50:03 30° W 19:54:36 10° NNW
Meteor 1-16 Rocket 4.5 19:48:05 10° SSW 19:53:25 66° WNW 19:58:56 10° N
Resurs 1-3 4.0 19:51:24 23° S 19:54:00 61° W 19:58:22 10° NNW
Cosmos 1328 3.9 19:50:01 10° NNW 19:54:00 72° W 19:55:27 37° S
Cosmos 1703 4.0 20:01:35 10° NNW 20:05:26 49° W 20:06:52 32° SSW
Cosmos 2218 Rocket 4.4 20:01:13 10° N 20:07:02 41° ENE 20:07:52 39° E
Cosmos 1461 3.5 20:03:16 10° NNW 20:07:39 48° NE 20:07:55 47° ENE
Cosmos 1023 Rocket 4.4 20:11:24 58° SE 20:12:01 64° ESE 20:17:07 10° NNE
Resurs 01 Rocket 2.2 20:12:28 36° SSW 20:13:57 54° W 20:18:18 10° NNW
APEX 4.3 20:11:29 10° NNW 20:18:14 88° WSW 20:19:41 54° SSE
USA 245 4.1 20:18:18 58° SE 20:19:24 78° ENE 20:25:33 10° N
Cosmos 2181 Rocket 4.0 20:18:41 52° ESE 20:19:34 56° E 20:25:36 10° NNE
Cosmos 2058 Rocket 3.3 20:18:20 43° SSW 20:19:42 71° W 20:24:14 10° N
Cosmos 2154 Rocket 4.4 20:13:59 10° NNW 20:20:14 61° W 20:24:20 22° SSW
Cosmos 1300 4.3 20:23:46 27° NNE 20:23:46 27° NNE 20:25:38 10° NNE
NOSS 3-4 (A) 3.8 20:15:22 10° NW 20:22:25 87° SW 20:24:57 46° SSE
NOSS 3-4 (C) 3.8 20:15:28 10° NW 20:22:31 87° SW 20:25:02 47° SSE
Cosmos 2369 Rocket 4.1 20:18:33 10° NW 20:23:04 25° WSW 20:27:19 11° SSW
Landsat 7 3.8 20:24:18 69° ENE 20:24:18 69° ENE 20:28:56 10° N
Cosmos 962 Rocket 4.4 20:21:04 10° N 20:27:17 83° W 20:29:12 47° S
SL-8 Rocket 3.9 20:25:36 10° N 20:31:56 73° E 20:32:55 62° SE
Cosmos 864 Rocket 4.4 20:30:11 10° N 20:36:22 61° ENE 20:36:40 60° E
SPOT 5 3.7 20:39:20 36° NNE 20:39:20 36° NNE 20:42:12 10° N
SL-24 R/B - RUBIN 2 4.1 20:32:28 10° SW 20:38:02 89° SE 20:44:22 10° NE
Cosmos 2058 4.4 20:35:40 10° N 20:37:54 29° NNE 20:37:54 29° NNE
Cosmos 2366 rocket 3.8 20:36:07 10° N 20:42:16 70° E 20:42:31 69° E
Cosmos 1190 Rocket 4.4 20:40:52 27° SW 20:43:43 64° WNW 20:49:00 10° NNE
Spot 2 Rocket 3.9 20:46:22 53° SW 20:46:54 56° W 20:51:57 10° NNW
USA 234 3.4 20:44:04 10° NE 20:50:35 70° NNW 20:57:03 10° WSW
Cosmos 1140 Rocket 3.9 20:51:22 48° WSW 20:52:34 61° WNW 20:57:42 10° NNE
Cosmos 1959 Rocket 4.3 20:46:53 10° N 20:53:16 86° E 20:53:38 80° SSE
ATLAS 2AS CENTAUR R/B 3.1 20:47:30 10° NW 20:54:47 54° WSW 20:56:15 47° SSW
Iridium 4 Rocket 4.3 20:54:07 10° N 20:56:43 36° N 20:56:43 36° N
Meteor 2-12 Rocket 4.4 20:54:09 10° N 20:59:54 72° NE 20:59:54 72° NE
BREEZE M DEB (TANK) 3.7 21:02:08 65° E 21:02:08 65° E 21:14:00 10° ENE
Terra 2.8 21:07:37 41° N 21:07:37 41° N 21:10:46 10° N
Cosmos 1697 Rocket 4.1 21:02:38 10° N 21:06:58 28° NE 21:06:58 28° NE
CZ-4C R/B 4.2 21:09:15 10° NNW 21:15:08 30° NNE 21:17:32 25° ENE
SPOT 1/Viking Rocket 4.3 21:17:02 46° W 21:17:02 46° W 21:21:40 10° NNW
Mayak 1.6 21:13:20 10° NNE 21:13:22 10° NNE 21:13:22 10° NNE
Cosmos 1821 Rocket 4.4 21:18:42 10° N 21:23:55 54° NE 21:23:55 54° NE
ERS-1 Rocket 4.0 21:27:58 41° WNW 21:27:58 41° WNW 21:31:47 10° NNW
COSMOS 2455 3.6 21:26:28 10° NW 21:31:27 45° W 21:31:27 45° W
Cosmos 1980 Rocket 3.8 21:30:07 10° N 21:33:52 25° NNE 21:33:52 25° NNE
ATLAS CENTAUR R/B 4.3 21:41:41 10° N 21:42:19 13° N 21:42:19 13° N
ATLAS 5 CENTAUR R/B 4.0 22:02:17 20° N 22:02:17 20° N 22:04:27 10° NNE
USA 234 4.5 22:27:08 10° NE 22:33:00 37° NNW 22:38:52 10° WNW
Mayak 1.9 22:49:34 10° NNW 22:49:57 12° NNW 22:49:57 12° NNW
SL-16 R/B 4.0 22:57:24 10° NNW 23:00:33 28° NNE 23:00:33 28° NNE
CZ-4C R/B 3.4 22:57:28 10° NW 23:02:42 54° NNW 23:02:42 54° NNW
Cosmos 2360 Rocket 4.2 23:07:11 10° N 23:10:44 21° NE 23:10:44 21° NE
Cosmos 2322 Rocket 4.0 23:08:44 10° NNW 23:11:48 27° N 23:11:48 27° N
Cosmos 1980 Rocket 4.2 23:13:39 10° NNW 23:15:38 22° NW 23:15:38 22° NW
Cosmos 2344 4.3 23:29:16 10° NW 23:38:51 73° WSW 23:38:51 73° WSW
Cosmos 2082 Rocket 4.0 23:44:34 28° N 23:44:34 28° N 23:47:36 10° NNE
